This demonstration page uses our WeatherBlox Daily Observations layout. Learn more.

38.88101, -77.10428

Hourly Observations for April 15, 2020

Temp ( °F °C ) Dew Point ( °F °C ) Humidity (%) Winds ( mph kmh ) Pressure ( in mb ) Visibility ( mi km ) Precip ( " mm )
12:39 am 00:39 Cloudy with Light Rain 40 4.4 37 2.8 89 89 NNW 15 24 30.1 1019 7 11.26538 0.02 0.508
12:52 am 00:52 Cloudy with Light Rain 40 4.4 37 2.8 89 89 NNW 12 19 30.11 1020 7 11.26538 0.04 1.016
1:42 am 01:42 Cloudy with Light Rain 40 4.4 36 2.2 86 86 NNW 12 19 30.11 1020 10 16.0934 0.001 0.001
1:52 am 01:52 Cloudy with Light Rain 40 4.4 37 2.8 89 89 NNW 9 15 30.11 1020 9 14.48406 0.01 0.254
2:08 am 02:08 Cloudy with Light Rain 39 3.9 37 2.8 93 93 NW 10 17 30.12 1020 9 14.48406 0.01 0.254
2:32 am 02:32 Cloudy with Light Rain 39 3.9 35 1.7 86 86 NNW 15 24 30.11 1020 7 11.26538 0.04 1.016
2:52 am 02:52 Cloudy with Light Rain 39 3.9 35 1.7 86 86 N 8 13 30.1 1019 7 11.26538 0.07 1.778
3:03 am 03:03 Cloudy with Light Rain 39 3.9 36 2.2 89 89 NNW 7 11 30.1 1019 7 11.26538 0.01 0.254
3:28 am 03:28 Cloudy with Light Rain 38 3.3 36 2.2 93 93 Calm 30.09 1019 8 12.87472 0.04 1.016
3:52 am 03:52 Cloudy with Light Rain 39 3.9 35 1.7 86 86 NNW 5 7 30.09 1019 10 16.0934 0.05 1.27
4:00 am 04:00 Cloudy with Light Rain 39 3.9 35 1.7 86 86 WNW 5 7 30.09 1019 10 16.0934 0.001 0.001
4:24 am 04:24 Cloudy with Light Rain 39 3.9 35 1.7 86 86 W 5 7 30.09 1019 10 16.0934 0.01 0.254
4:52 am 04:52 Cloudy with Light Rain 39 3.9 36 2.2 89 89 Calm 30.08 1019 10 16.0934 0.02 0.508
5:52 am 05:52 Cloudy with Light Rain 39 3.9 36 2.2 89 89 WSW 6 9 30.07 1018 10 16.0934 0.01 0.254
6:37 am 06:37 Mostly Cloudy 39 3.9 37 2.8 93 93 WSW 7 11 30.08 1019 10 16.0934 0.001 0.001
6:52 am 06:52 Cloudy 39 3.9 37 2.8 93 93 Calm 30.08 1019 10 16.0934 0.001 0.001
7:52 am 07:52 Cloudy 41 5 33 0.6 73 73 NNW 10 17 30.08 1019 10 16.0934 0 0
8:52 am 08:52 Mostly Cloudy 42 5.6 31 -0.6 65 65 NNW 12 19 30.09 1019 10 16.0934 0 0
9:52 am 09:52 Partly Cloudy 44 6.7 27 -2.8 51 51 NNW 14 22 30.09 1019 10 16.0934 0 0
10:52 am 10:52 Mostly Sunny 47 8.3 26 -3.3 44 44 NNW 13 20 30.08 1019 10 16.0934 0 0
11:52 am 11:52 Mostly Sunny 49 9.4 26 -3.3 41 41 NNW 12 19 30.06 1018 10 16.0934 0 0
12:52 pm 12:52 Mostly Sunny 51 10.6 27 -2.8 39 39 NNW 10 17 30.04 1017 10 16.0934 0 0
1:52 pm 13:52 Partly Cloudy 50 10 25 -3.9 38 38 WNW 9 15 30.03 1017 10 16.0934 0 0
2:52 pm 14:52 Partly Cloudy 53 11.7 25 -3.9 34 34 N 12 19 30.01 1016 10 16.0934 0 0
3:52 pm 15:52 Mostly Sunny 53 11.7 23 -5 31 31 VRB 3 6 29.99 1016 10 16.0934 0 0
4:52 pm 16:52 Mostly Cloudy 53 11.7 24 -4.4 32 32 VRB 7 11 29.98 1015 10 16.0934 0 0
5:52 pm 17:52 Partly Cloudy 53 11.7 23 -5 31 31 W 10 17 29.98 1015 10 16.0934 0 0
6:52 pm 18:52 Mostly Sunny 52 11.1 22 -5.6 31 31 SW 8 13 29.98 1015 10 16.0934 0 0
7:52 pm 19:52 Mostly Clear 50 10 23 -5 35 35 S 9 15 29.99 1016 10 16.0934 0 0
8:52 pm 20:52 Mostly Clear 50 10 29 -1.7 44 44 S 10 17 30.01 1016 10 16.0934 0 0
9:52 pm 21:52 Mostly Clear 48 8.9 29 -1.7 48 48 S 12 19 30.03 1017 10 16.0934 0 0
10:52 pm 22:52 Mostly Clear 47 8.3 30 -1.1 52 52 SSW 10 17 30.03 1017 10 16.0934 0 0
11:52 pm 23:52 Clear 46 7.8 29 -1.7 51 51 SSW 12 19 30.03 1017 10 16.0934 0 0

Powered by AerisWeather